Flag for Germany Weather past 2 weeks in Cuxhaven, Lower Saxony, Germany

Now
39 °F

Scattered showers. Broken clouds.


Feels Like: 39 °F
Forecast: 42 / 48 °F
Wind: 2 mph from Southwest

Location: Nordholz

Current Time: Mar 28, 2015 at 7:12:51 AM

Latest Report: Mar 28, 2015 at 6:20 AM


Visibility: N/A

Pressure: 30.12 "Hg

Humidity: 87%

Dew point: 36 °F

Location of CuxhavenLocation

Historic Weather in Cuxhaven — Graph

°F

Cuxhaven temperature yesterday

Maximum temperature yesterday: 45 °F (at 10:50 AM)
Minimum temperature yesterday: 39 °F (at 12:20 AM)
Average temperature yesterday: 43 °F

Past Weeks' High & Low Weather Summary

 TemperatureHumidityPressure
High57 °F (Mar 17, 3:20 PM)100% (Mar 18, 7:02 AM)30.48 "Hg (Mar 18, 7:02 AM)
Low28 °F (Mar 13, 6:20 AM)28% (Mar 19, 12:20 PM)29.65 "Hg (Mar 25, 3:20 PM)
Average42 °F79%30.14 "Hg
* Reported Mar 13 5:20 AM — Mar 28 5:46 AM, Cuxhaven, Weather by CustomWeather, © 2015

Note: Actual official high and low records may vary slightly from our data, if they occured in-between our weather recording intervals... More about our weather records

Advertising

Cuxhaven weather history for previous 24 hours

 ConditionsComfort  
Time TempWeatherWind HumidityBarometerVisibility
5:46 AM
Sat, Mar 28
41 °FSprinkles. Partly cloudy.8 mph70%30.12 "Hg2 mi
5:20 AM41 °FPassing clouds.7 mph93%30.12 "HgN/A
4:20 AM43 °FPassing clouds.9 mph93%30.12 "Hg6 mi
3:20 AM43 °FPassing clouds.9 mph93%30.12 "Hg6 mi
2:50 AM43 °FPassing clouds.8 mph87%30.12 "Hg5 mi
2:20 AM43 °FPartly cloudy.8 mph87%30.12 "Hg4 mi
1:50 AM43 °FFog.8 mph87%30.12 "Hg3 mi
1:20 AM43 °FPassing clouds.9 mph87%30.12 "Hg4 mi
12:20 AM41 °FPassing clouds.6 mph93%30.12 "Hg5 mi
11:20 PM
Fri, Mar 27
41 °FPartly cloudy.9 mph93%30.12 "Hg6 mi
10:20 PM43 °FPartly cloudy.12 mph81%30.09 "Hg6 mi
9:20 PM43 °FPartly cloudy.15 mph87%30.09 "Hg5 mi
8:20 PM43 °FPartly cloudy.15 mph87%30.07 "Hg4 mi
7:46 PM43 °FFog.15 mph87%30.04 "Hg3 mi
7:20 PM43 °FFog.15 mph87%30.04 "Hg3 mi
6:20 PM43 °FDrizzle. Fog.15 mph93%30.01 "Hg1 mi
5:20 PM43 °FBroken clouds.15 mph93%29.95 "Hg4 mi
4:52 PM45 °FPartly sunny.14 mph87%29.95 "Hg6 mi
4:20 PM45 °FBroken clouds.14 mph87%29.92 "HgN/A
3:20 PM45 °FScattered clouds.17 mph81%29.89 "HgN/A
2:48 PM45 °FPartly sunny.17 mph81%29.89 "HgN/A
2:20 PM45 °FScattered clouds.14 mph87%29.86 "HgN/A
2:03 PM45 °FBroken clouds.10 mph87%29.86 "HgN/A
1:20 PM45 °FPartly sunny.8 mph87%29.83 "HgN/A
12:56 PM45 °FSprinkles. Partly sunny.9 mph81%29.83 "Hg6 mi
12:20 PM45 °FBroken clouds.13 mph87%29.83 "HgN/A
11:20 AM43 °FSprinkles. Partly sunny.10 mph87%29.80 "Hg4 mi
10:50 AM45 °FSprinkles. Partly sunny.10 mph87%29.80 "HgN/A
10:20 AM43 °FBroken clouds.9 mph87%29.80 "HgN/A
9:20 AM43 °FLight rain. Broken clouds.9 mph87%29.77 "HgN/A
8:20 AM43 °FBroken clouds.10 mph87%29.74 "HgN/A
7:20 AM41 °FSprinkles. Broken clouds.9 mph93%29.74 "HgN/A
Weather by CustomWeather, © 2015

See weather overviewHow to use our weather pages